星链-31986 (STARLINK-31986 )

导读 | 星芒AI

STARLINK-31986 是 SpaceX 星链计划中的一颗低轨通信卫星,属于第6批星链卫星(Group 6)。该卫星于2023年10月发射,部署在约550公里高度的近地轨道,旨在为全球用户提供高速互联网服务。星链系统由数千颗卫星组成,致力于改善偏远地区的网络连接。STARLINK-31986 采用先进的推进和通信技术,具备自主变轨和避障能力,是实现全球宽带覆盖的重要组成部分。

基本信息
目录编号:
60019
目录名称:
STARLINK-31986
国际标识:
2024-111D
轨道中心:
EARTH
卫星名称:
星链-31986
卫星全名:
星链-31986 (STARLINK-31986 )
卫星状态:
在轨 (已飞行513 天)
发射日期:
2024-06-08 UTC
国别 :
美国 (US)
星等 :
--
轨道信息
数据来源 国际轨道数据 AOE轨道数据
星历时间 2025-11-02T15:59:52+0800
20小时前
查看轨道信息
2025-10-28T07:00:00+0800
6天前
查看轨道信息
半长轴 6853.421km 6853.353km
偏心率 0.0001475 0.0001185
轨道倾角 53.161° 53.162°
近地点辐角 94.783° 77.724°
升交点赤经 307.254° 332.226°
平近点角 265.334° 177.183°
近地点 474.275km 474.405km
远地点 476.297km 476.031km
周期 94.107分钟 94.105分钟
每日圈数 15.301772 15.301999
详细信息
固有亮度:
5
最大亮度:
1.5
卫星平台:
Starlink v2.0 mini
覆盖范围:
全球
运营商:
太空探索技术公司
运营商所在国:
美国
制造商(研发单位):
太空探索技术公司
制造商所在国:
美国
使用方式:
暂无
卫星简介
星链(Starlink)计划是由太空探索技术公司(SpaceX)提出的一个巨型低轨卫星互联网星座项目,计划在2019年至2024年间在太空搭建由约1.2万颗卫星组成的“星链”网络,其中1584颗将部署在地球上空550千米处的近地轨道,并从2020年开始工作。该卫星仍在工作。
2D轨道图
3D轨道图
轨道高度分析图
轨道倾角分析图
轨道综合分析图
查看轨道综合分析图